Surface/Precipitation History
01/19/2017 21:17  to  1/20/2017 21:17
Change End Date:
Date/Time
(MST)
Sf
Temp Chem Water Layer Surface Precipitation
Sfc Pvt Sub Frz Factor Pct Dpth DpthThk IcePct Cond Salin FI Type Intens Accum Rate
01/20/2017 21:09 Ice Warning 17.4F - 28F 32F 5 1% - - 99% 1 mhos 178 - None None - -
01/20/2017 21:03 Ice Warning 17.8F - 28F 32F 5 1% - - 99% 1 mhos 176 - None None - -
01/20/2017 20:54 Ice Warning 18.0F - 28F 32F 5 1% - - 99% 1 mhos 177 - None None - -
01/20/2017 20:53 Ice Warning 18.1F - 28F 32F 5 1% - - 99% 1 mhos 176 - None None - -
01/20/2017 20:43 Ice Warning 18.3F - 28F 32F 5 1% - - 99% 1 mhos 177 - None None - -
01/20/2017 20:39 Ice Warning 18.5F - 28F 32F 5 1% - - 99% 1 mhos 178 - None None - -
01/20/2017 20:33 Ice Warning 18.9F - 28F 32F 10 1% - - 99% 1 mhos 178 - None None - -
01/20/2017 20:24 Ice Warning 19.4F - 28F 32F 10 1% - - 99% 1 mhos 177 - None None - -
01/20/2017 20:23 Ice Warning 19.4F - 28F 32F 10 1% - - 99% 1 mhos 177 - None None - -
01/20/2017 20:13 Ice Warning 19.8F - 28F 32F 10 1% - - 99% 1 mhos 177 - None None - -
01/20/2017 20:09 Ice Warning 19.9F - 28F 32F 10 1% - - 99% 1 mhos 176 - None None - -
01/20/2017 20:03 Ice Warning 19.9F - 28F 32F 10 1% - - 99% 1 mhos 177 - None None - -
01/20/2017 19:54 Ice Warning 20.1F - 28F 32F 5 1% - - 99% 1 mhos 176 - None None - -
01/20/2017 19:53 Ice Warning 19.9F - 28F 32F 5 1% - - 99% 1 mhos 178 - None None - -
01/20/2017 19:43 Ice Warning 20.3F - 28F 32F 5 1% - - 99% 1 mhos 178 - None None - -
Date/Time
(MST)
Sf
Temp Chem Water Layer Surface Precipitation
Sfc Pvt Sub Frz Factor Pct Dpth DpthThk IcePct Cond Salin FI Type Intens Accum Rate
01/20/2017 19:39 Ice Warning 20.1F - 28F 32F 5 1% - - 99% 1 mhos 179 - None None - -
01/20/2017 19:33 Ice Warning 20.1F - 28F 32F 5 1% - - 99% 1 mhos 180 - None None - -
01/20/2017 19:24 Ice Warning 20.5F - 28F 32F 5 1% - - 99% 1 mhos 182 - None None - -
01/20/2017 19:23 Ice Warning 20.5F - 28F 32F 5 1% - - 99% 1 mhos 182 - None None - -
01/20/2017 19:13 Ice Warning 20.8F - 28F 32F 5 1% - - 99% 1 mhos 186 - None None - -
01/20/2017 19:09 Ice Warning 21.0F - 28F 32F 5 1% - - 99% 1 mhos 185 - None None - -
01/20/2017 19:03 Ice Warning 21.2F - 28F 32F 5 1% - - 99% 1 mhos 188 - None None - -
01/20/2017 18:54 Ice Warning 21.0F - 28F 32F 5 1% - - 99% 1 mhos 190 - None None - -
01/20/2017 18:53 Ice Warning 21.0F - 28F 32F 5 1% - - 99% 1 mhos 190 - None None - -
01/20/2017 18:43 Ice Warning 21.2F - 28F 32F 5 1% - - 99% 1 mhos 192 - None None - -
01/20/2017 18:39 Ice Warning 21.4F - 28F 32F 5 1% - - 99% 1 mhos 193 - None None - -
01/20/2017 18:33 Ice Warning 21.4F - 28F 32F 5 1% - - 99% 1 mhos 197 - None None - -
01/20/2017 18:24 Ice Warning 21.7F - 28F 32F 5 1% - - 99% 1 mhos 201 - None None - -
01/20/2017 18:23 Ice Warning 21.7F - 28F 32F 5 1% - - 99% 1 mhos 203 - None None - -
01/20/2017 18:13 Ice Warning 22.3F - 28F 32F 5 1% - - 99% 1 mhos 209 - None None - -
Date/Time
(MST)
Sf
Temp Chem Water Layer Surface Precipitation
Sfc Pvt Sub Frz Factor Pct Dpth DpthThk IcePct Cond Salin FI Type Intens Accum Rate
01/20/2017 18:08 Ice Warning 22.5F - 28F 32F 5 1% - - 99% 1 mhos 212 - None None - -
01/20/2017 18:03 Ice Warning 22.6F - 28F 32F 5 1% - - 98% 1 mhos 217 - None None - -
01/20/2017 17:53 Ice Warning 23.0F - 28F 32F 5 1% - - 98% 1 mhos 223 - None None - -
01/20/2017 17:52 Ice Warning 23.2F - 28F 32F 5 1% - - 98% 1 mhos 222 - None None - -
01/20/2017 17:42 Ice Warning 23.5F - 28F 32F 5 1% - - 98% 1 mhos 225 - None None - -
01/20/2017 17:38 Ice Warning 23.7F - 28F 32F 5 1% - - 98% 1 mhos 225 - None None - -
01/20/2017 17:32 Ice Warning 24.3F - 28F 32F 5 1% - - 98% 1 mhos 230 - None None - -
01/20/2017 17:23 Ice Warning 24.6F - 28F 32F 5 1% - - 98% 1 mhos 235 - None None - -
01/20/2017 17:22 Ice Warning 24.8F - 28F 32F 5 1% - - 98% 1 mhos 235 - None None - -
01/20/2017 17:12 Ice Warning 25.7F - 28F 32F 5 1% - - 98% 1 mhos 238 - None None - -
01/20/2017 17:08 Ice Warning 26.2F - 28F 32F 5 1% - - 98% 1 mhos 235 - None None - -
01/20/2017 17:02 Ice Warning 26.8F - 28F 32F 5 1% - - 97% 2 mhos 244 - None None - -
01/20/2017 16:53 Ice Warning 27.7F - 28F 32F 10 1% - - 97% 2 mhos 274 - None None - -
01/20/2017 16:52 Ice Warning 27.9F - 28F 32F 10 1% - - 96% 2 mhos 278 - None None - -
01/20/2017 16:42 Ice Warning 28.6F - 28F 32F 30 1% - - 95% 2 mhos 323 - None None - -
Date/Time
(MST)
Sf
Temp Chem Water Layer Surface Precipitation
Sfc Pvt Sub Frz Factor Pct Dpth DpthThk IcePct Cond Salin FI Type Intens Accum Rate
01/20/2017 16:38 Ice Warning 29.3F - 28F 32F 50 1% - - 94% 2 mhos 310 - None None - -
01/20/2017 16:32 Ice Warning 30.7F - 28F 32F 60 1% - - 90% 3 mhos 282 - None None - -
01/20/2017 16:23 Chemically Wet 31.8F - 28F 32F 75 1% 0.00 in - 0% 3 mhos 264 - None None - -
01/20/2017 16:22 Wet 32.2F - 28F 32F 75 1% 0.00 in - 0% 3 mhos 263 - None None - -
01/20/2017 16:12 Wet 34.0F - 27F 32F 95 1% 0.00 in - 0% 3 mhos 268 - None None - -
01/20/2017 16:08 Wet 34.2F - 27F 32F 95 1% 0.00 in - 0% 3 mhos 268 - None None - -
01/20/2017 16:02 Wet 33.8F - 27F 32F 95 1% 0.00 in - 0% 3 mhos 269 - None None - -
01/20/2017 15:53 Wet 34.9F - 27F 32F 95 1% 0.00 in - 0% 3 mhos 271 - None None - -
01/20/2017 15:52 Wet 34.9F - 27F 32F 95 1% 0.00 in - 0% 3 mhos 275 - None None - -
01/20/2017 15:42 Wet 36.0F - 27F 32F 95 1% 0.00 in - 0% 3 mhos 281 - None None - -
01/20/2017 15:38 Wet 36.9F - 27F 32F 95 1% 0.00 in - 0% 3 mhos 281 - None None - -
01/20/2017 15:32 Wet 36.7F - 27F 32F 95 1% 0.00 in - 0% 3 mhos 285 - None None - -
01/20/2017 15:23 Wet 36.9F - 27F 32F 95 1% 0.00 in - 0% 3 mhos 292 - None None - -
01/20/2017 15:22 Wet 36.9F - 27F 32F 95 1% 0.00 in - 0% 3 mhos 288 - None None - -
01/20/2017 15:12 Wet 37.4F - 27F 32F 95 1% 0.00 in - 0% 3 mhos 299 - None None - -
Date/Time
(MST)
Sf
Temp Chem Water Layer Surface Precipitation
Sfc Pvt Sub Frz Factor Pct Dpth DpthThk IcePct Cond Salin FI Type Intens Accum Rate
01/20/2017 15:08 Wet 37.8F - 27F 32F 95 1% 0.00 in - 0% 3 mhos 301 - None None - -
01/20/2017 15:02 Wet 37.6F - 27F 32F 95 1% 0.00 in - 0% 3 mhos 304 - None None - -
01/20/2017 14:54 Wet 38.1F - 27F 32F 95 1% 0.10 in - 0% 3 mhos 306 - None None - -
01/20/2017 14:52 Wet 37.8F - 27F 32F 95 1% 0.10 in - 0% 3 mhos 307 - None None - -
01/20/2017 14:42 Wet 37.9F - 27F 32F 95 1% 0.20 in - 0% 3 mhos 323 - None None - -
01/20/2017 14:38 Wet 38.1F - 27F 32F 95 1% 0.20 in - 0% 3 mhos 324 - None None - -
01/20/2017 14:32 Wet 38.3F - 27F 32F 95 1% 0.20 in - 0% 4 mhos 329 - None None - -
01/20/2017 14:23 Wet 36.1F - 27F 32F 95 1% 0.20 in - 0% 4 mhos 335 - None None - -
01/20/2017 14:22 Wet 37.4F - 27F 32F 95 1% 0.20 in - 0% 4 mhos 336 - None None - -
01/20/2017 14:12 Wet 39.9F - 27F 32F 95 1% 0.20 in - 0% 4 mhos 341 - None None - -
01/20/2017 14:08 Wet 39.7F - 27F 32F 95 1% 0.20 in - 0% 4 mhos 347 - None None - -
01/20/2017 14:02 Wet 38.8F - 27F 32F 95 1% 0.20 in - 0% 4 mhos 352 - None None - -
01/20/2017 13:53 Wet 38.8F - 27F 32F 95 1% 0.10 in - 0% 4 mhos 360 - None None - -
01/20/2017 13:52 Wet 38.5F - 27F 32F 95 1% 0.10 in - 0% 4 mhos 362 - None None - -
01/20/2017 13:42 Wet 37.8F - 27F 32F 95 1% 0.20 in - 0% 4 mhos 361 - None None - -
Date/Time
(MST)
Sf
Temp Chem Water Layer Surface Precipitation
Sfc Pvt Sub Frz Factor Pct Dpth DpthThk IcePct Cond Salin FI Type Intens Accum Rate
01/20/2017 13:38 Wet 37.2F - 27F 32F 95 1% 0.20 in - 0% 4 mhos 362 - None None - -
01/20/2017 13:32 Wet 34.9F - 27F 32F 95 1% 0.20 in - 0% 4 mhos 381 - None None - -
01/20/2017 13:23 Wet 32.2F - 27F 32F 95 1% 0.10 in - 0% 4 mhos 390 - None None - -
01/20/2017 13:22 Wet 32.5F - 27F 32F 95 1% 0.20 in - 0% 4 mhos 407 - None None - -
01/20/2017 13:12 Wet 32.5F - 27F 32F 95 1% 0.20 in - 0% 4 mhos 418 - None None - -
01/20/2017 13:08 Wet 34.2F - 27F 32F 95 1% 0.10 in - 0% 4 mhos 418 - None None - -
01/20/2017 13:02 Wet 35.2F - 27F 32F 95 1% 0.10 in - 0% 5 mhos 447 - None None - -
01/20/2017 12:53 Wet 34.3F - 27F 32F 95 2% 0.10 in - 0% 5 mhos 487 - None None - -
01/20/2017 12:52 Wet 35.4F - 27F 32F 95 2% 0.10 in - 0% 5 mhos 480 - None None - -
01/20/2017 12:41 Wet 35.8F - 27F 32F 95 2% 0.20 in - 0% 5 mhos 520 - None None - -
01/20/2017 12:38 Wet 36.1F - 27F 32F 95 2% 0.20 in - 0% 5 mhos 525 - None None - -
01/20/2017 12:31 Wet 34.9F - 27F 32F 95 2% 0.10 in - 0% 6 mhos 537 - None None - -
01/20/2017 12:23 Wet 34.9F - 27F 31F 95 2% 0.20 in - 0% 7 mhos 642 - None None - -
01/20/2017 12:21 Wet 34.3F - 27F 31F 95 2% 0.20 in - 0% 7 mhos 657 - None None - -
01/20/2017 12:11 Wet 33.4F - 27F 31F 95 2% 0.10 in - 0% 7 mhos 658 - None None - -
Date/Time
(MST)
Sf
Temp Chem Water Layer Surface Precipitation
Sfc Pvt Sub Frz Factor Pct Dpth DpthThk IcePct Cond Salin FI Type Intens Accum Rate
01/20/2017 12:08 Wet 32.4F - 27F 31F 95 2% 0.20 in - 0% 7 mhos 694 - None None - -
01/20/2017 12:01 Chemically Wet 30.6F - 27F 31F 95 2% - - 79% 6 mhos 672 - None None - -
01/20/2017 11:53 Ice Warning 29.8F - 27F 32F 95 2% - - 90% 4 mhos 481 - None None - -
01/20/2017 11:51 Ice Warning 29.5F - 27F 32F 95 2% - - 91% 4 mhos 483 - None None - -
01/20/2017 11:41 Ice Warning 28.2F - 27F 32F 95 1% - - 95% 3 mhos 342 - None None - -
01/20/2017 11:38 Ice Warning 27.3F - 27F 32F 95 1% - - 96% 2 mhos 332 - None None - -
01/20/2017 11:31 Ice Warning 25.5F - 27F 32F 95 1% - - 97% 2 mhos 359 - None None - -
01/20/2017 11:23 Ice Warning 25.9F - 27F 32F 95 1% - - 97% 2 mhos 352 - None None - -
01/20/2017 11:21 Ice Warning 25.9F - 27F 32F 95 1% - - 97% 2 mhos 349 - None None - -
01/20/2017 11:11 Ice Warning 25.7F - 27F 32F 95 1% - - 97% 2 mhos 327 - None None - -
01/20/2017 11:08 Ice Warning 25.0F - 28F 32F 95 1% - - 97% 2 mhos 341 - None None - -
01/20/2017 11:01 Ice Warning 25.5F - 28F 32F 95 1% - - 97% 2 mhos 340 - None None - -
01/20/2017 10:53 Ice Warning 24.1F - 28F 32F 95 1% - - 97% 2 mhos 339 - None None - -
01/20/2017 10:51 Ice Warning 23.9F - 28F 32F 95 1% - - 97% 2 mhos 343 - None None - -
01/20/2017 10:41 Ice Warning 23.5F - 28F 32F 95 1% - - 98% 2 mhos 330 - None None - -
Date/Time
(MST)
Sf
Temp Chem Water Layer Surface Precipitation
Sfc Pvt Sub Frz Factor Pct Dpth DpthThk IcePct Cond Salin FI Type Intens Accum Rate
01/20/2017 10:38 Ice Warning 23.0F - 28F 32F 95 1% - - 98% 2 mhos 329 - None None - -
01/20/2017 10:31 Ice Warning 21.7F - 28F 32F 95 1% - - 98% 1 mhos 331 - None None - -
01/20/2017 10:23 Ice Warning 20.5F - 28F 32F 95 1% - - 98% 1 mhos 341 - None None - -
01/20/2017 10:21 Ice Warning 20.7F - 28F 32F 95 1% - - 98% 1 mhos 338 - None None - -
01/20/2017 10:11 Ice Warning 18.7F - 28F 32F 95 1% - - 98% 1 mhos 334 - None None - -
01/20/2017 10:08 Ice Warning 18.7F - 28F 32F 95 1% - - 98% 1 mhos 331 - None None - -
01/20/2017 10:01 Ice Warning 18.7F - 28F 32F 95 1% - - 98% 1 mhos 324 - None None - -
01/20/2017 09:53 Ice Warning 18.7F - 28F 32F 95 1% - - 98% 1 mhos 322 - None None - -
01/20/2017 09:51 Ice Warning 18.9F - 28F 32F 95 1% - - 98% 1 mhos 319 - None None - -
01/20/2017 09:41 Ice Warning 19.0F - 28F 32F 95 1% - - 98% 1 mhos 313 - None None - -
01/20/2017 09:39 Ice Warning 19.0F - 28F 32F 95 1% - - 98% 1 mhos 313 - None None - -
01/20/2017 09:31 Ice Warning 19.0F - 28F 32F 95 1% - - 98% 1 mhos 307 - None None - -
01/20/2017 09:23 Ice Warning 19.2F - 28F 32F 95 1% - - 98% 1 mhos 293 - None None - -
01/20/2017 09:21 Ice Warning 19.2F - 28F 32F 95 1% - - 98% 1 mhos 294 - None None - -
01/20/2017 09:11 Ice Warning 19.6F - 28F 32F 95 1% - - 98% 1 mhos 285 - None None - -
Date/Time
(MST)
Sf
Temp Chem Water Layer Surface Precipitation
Sfc Pvt Sub Frz Factor Pct Dpth DpthThk IcePct Cond Salin FI Type Intens Accum Rate
01/20/2017 09:08 Ice Warning 19.8F - 28F 32F 95 1% - - 98% 1 mhos 279 - None None - -
01/20/2017 09:01 Ice Warning 20.1F - 28F 32F 95 1% - - 98% 1 mhos 273 - None None - -
01/20/2017 08:53 Ice Warning 20.5F - 28F 32F 95 1% - - 98% 1 mhos 267 - None None - -
01/20/2017 08:51 Ice Warning 20.7F - 28F 32F 95 1% - - 98% 1 mhos 266 - None None - -
01/20/2017 08:41 Ice Warning 20.8F - 28F 32F 95 1% - - 98% 1 mhos 260 - None None - -
01/20/2017 08:38 Ice Warning 21.0F - 28F 32F 95 1% - - 98% 1 mhos 258 - None None - -
01/20/2017 08:31 Ice Warning 21.6F - 28F 32F 95 1% - - 98% 1 mhos 256 - None None - -
01/20/2017 08:23 Ice Warning 22.3F - 28F 32F 95 1% - - 98% 1 mhos 253 - None None - -
01/20/2017 08:21 Ice Warning 22.5F - 28F 32F 95 1% - - 98% 1 mhos 252 - None None - -
01/20/2017 08:11 Ice Warning 22.5F - 28F 32F 95 1% - - 98% 1 mhos 245 - None None - -
01/20/2017 08:08 Ice Warning 22.6F - 28F 32F 95 1% - - 98% 1 mhos 243 - None None - -
01/20/2017 08:01 Ice Warning 23.2F - 28F 32F 95 1% - - 98% 1 mhos 243 - None None - -
01/20/2017 07:53 Ice Warning 23.5F - 28F 32F 90 1% - - 98% 1 mhos 242 - Yes - - -
01/20/2017 07:50 Ice Warning 23.7F - 28F 32F 90 1% - - 98% 1 mhos 243 - Yes - - -
01/20/2017 07:40 Ice Warning 24.3F - 28F 32F 90 1% - - 98% 1 mhos 235 - Yes - - -
Date/Time
(MST)
Sf
Temp Chem Water Layer Surface Precipitation
Sfc Pvt Sub Frz Factor Pct Dpth DpthThk IcePct Cond Salin FI Type Intens Accum Rate
01/20/2017 07:38 Ice Warning 24.3F - 28F 32F 90 1% - - 98% 1 mhos 238 - None None - -
01/20/2017 07:30 Ice Warning 24.3F - 28F 32F 90 1% - - 98% 1 mhos 236 - Yes - - -
01/20/2017 07:23 Ice Warning 24.3F - 28F 32F 95 1% - - 98% 1 mhos 237 - None None - -
01/20/2017 07:20 Ice Warning 24.4F - 28F 32F 90 1% - - 98% 1 mhos 236 - None None - -
01/20/2017 07:10 Ice Warning 24.4F - 28F 32F 90 1% - - 98% 1 mhos 238 - None None - -
01/20/2017 07:09 Ice Warning 24.4F - 28F 32F 90 1% - - 98% 1 mhos 237 - None None - -
01/20/2017 07:00 Ice Warning 24.4F - 28F 32F 95 1% - - 98% 1 mhos 234 - None None - -
01/20/2017 06:54 Ice Warning 24.3F - 28F 32F 90 1% - - 98% 1 mhos 234 - None None - -
01/20/2017 06:50 Ice Warning 24.3F - 28F 32F 95 1% - - 98% 1 mhos 230 - None None - -
01/20/2017 06:40 Ice Warning 24.3F - 28F 32F 95 1% - - 98% 1 mhos 227 - None None - -
01/20/2017 06:39 Ice Warning 24.3F - 28F 32F 95 1% - - 98% 1 mhos 226 - None None - -
01/20/2017 06:30 Ice Warning 24.3F - 28F 32F 95 1% - - 98% 1 mhos 222 - None None - -
01/20/2017 06:24 Ice Warning 24.3F - 28F 32F 95 1% - - 98% 1 mhos 217 - None None - -
01/20/2017 06:20 Ice Warning 24.3F - 28F 32F 90 1% - - 98% 1 mhos 217 - None None - -
01/20/2017 06:10 Ice Warning 24.4F - 28F 32F 95 1% - - 98% 1 mhos 217 - None None - -
Date/Time
(MST)
Sf
Temp Chem Water Layer Surface Precipitation
Sfc Pvt Sub Frz Factor Pct Dpth DpthThk IcePct Cond Salin FI Type Intens Accum Rate
01/20/2017 06:09 Ice Warning 24.4F - 28F 32F 95 1% - - 98% 1 mhos 217 - None None - -
01/20/2017 06:00 Ice Warning 24.6F - 28F 32F 90 1% - - 98% 1 mhos 221 - None None - -
01/20/2017 05:54 Ice Warning 25.0F - 28F 32F 90 1% - - 98% 1 mhos 219 - None None - -
01/20/2017 05:50 Ice Warning 24.8F - 28F 32F 90 1% - - 98% 1 mhos 220 - None None - -
01/20/2017 05:40 Ice Warning 25.0F - 28F 32F 90 1% - - 98% 1 mhos 219 - None None - -
01/20/2017 05:39 Ice Warning 25.0F - 28F 32F 90 1% - - 98% 1 mhos 219 - None None - -
01/20/2017 05:30 Ice Warning 25.2F - 28F 32F 90 1% - - 98% 1 mhos 221 - None None - -
01/20/2017 05:24 Ice Warning 25.3F - 28F 32F 90 1% - - 98% 1 mhos 222 - None None - -
01/20/2017 05:20 Ice Warning 25.3F - 28F 32F 90 1% - - 98% 1 mhos 224 - Yes - - -
01/20/2017 05:10 Ice Warning 25.3F - 28F 32F 90 1% - - 98% 1 mhos 223 - Yes - - -
01/20/2017 05:09 Ice Warning 25.3F - 28F 32F 90 1% - - 98% 1 mhos 224 - Yes - - -
01/20/2017 05:00 Ice Warning 25.3F - 28F 32F 90 1% - - 98% 1 mhos 222 - Yes - - -
01/20/2017 04:54 Ice Warning 25.3F - 28F 32F 90 1% - - 98% 1 mhos 220 - Yes - - -
01/20/2017 04:50 Ice Warning 25.3F - 28F 32F 90 1% - - 98% 1 mhos 220 - Yes - - -
01/20/2017 04:40 Ice Warning 25.3F - 28F 32F 90 1% - - 98% 1 mhos 220 - None None - -
Date/Time
(MST)
Sf
Temp Chem Water Layer Surface Precipitation
Sfc Pvt Sub Frz Factor Pct Dpth DpthThk IcePct Cond Salin FI Type Intens Accum Rate
01/20/2017 04:39 Ice Warning 25.3F - 28F 32F 90 1% - - 98% 1 mhos 220 - None None - -
01/20/2017 04:30 Ice Warning 25.3F - 28F 32F 90 1% - - 98% 1 mhos 222 - None None - -
01/20/2017 04:24 Ice Warning 25.5F - 28F 32F 90 1% - - 98% 1 mhos 222 - None None - -
01/20/2017 04:20 Ice Warning 25.5F - 28F 32F 90 1% - - 98% 1 mhos 225 - None None - -
01/20/2017 04:10 Ice Warning 25.5F - 28F 32F 95 1% - - 98% 1 mhos 222 - None None - -
01/20/2017 04:09 Ice Warning 25.5F - 28F 32F 95 1% - - 98% 1 mhos 222 - None None - -
01/20/2017 04:00 Ice Warning 25.3F - 28F 32F 95 1% - - 98% 1 mhos 219 - None None - -
01/20/2017 03:54 Ice Warning 25.3F - 28F 32F 95 1% - - 98% 1 mhos 216 - None None - -
01/20/2017 03:50 Ice Warning 25.2F - 28F 32F 95 1% - - 98% 1 mhos 218 - None None - -
01/20/2017 03:40 Ice Warning 25.3F - 28F 32F 95 1% - - 98% 1 mhos 216 - None None - -
01/20/2017 03:39 Ice Warning 25.3F - 28F 32F 95 1% - - 98% 1 mhos 216 - None None - -
01/20/2017 03:30 Ice Warning 25.3F - 28F 32F 95 1% - - 98% 1 mhos 221 - None None - -
01/20/2017 03:24 Ice Warning 25.7F - 28F 32F 95 1% - - 98% 1 mhos 219 - None None - -
01/20/2017 03:20 Ice Warning 25.7F - 28F 32F 95 1% - - 98% 1 mhos 219 - Yes - - -
01/20/2017 03:10 Ice Warning 25.7F - 28F 32F 95 1% - - 98% 1 mhos 219 - None None - -
Date/Time
(MST)
Sf
Temp Chem Water Layer Surface Precipitation
Sfc Pvt Sub Frz Factor Pct Dpth DpthThk IcePct Cond Salin FI Type Intens Accum Rate
01/20/2017 03:09 Ice Warning 25.7F - 28F 32F 95 1% - - 98% 1 mhos 219 - None None - -
01/20/2017 03:00 Ice Warning 25.7F - 28F 32F 95 1% - - 98% 1 mhos 219 - None None - -
01/20/2017 02:54 Ice Warning 25.7F - 28F 32F 95 1% - - 98% 1 mhos 218 - None None - -
01/20/2017 02:50 Ice Warning 25.7F - 28F 32F 95 1% - - 98% 1 mhos 219 - None None - -
01/20/2017 02:39 Ice Warning 25.7F - 28F 32F 95 1% - - 98% 1 mhos 218 - Yes - - -
01/20/2017 02:39 Ice Warning 25.7F - 28F 32F 95 1% - - 98% 1 mhos 218 - Yes - - -
01/20/2017 02:29 Ice Warning 25.7F - 28F 32F 95 1% - - 98% 1 mhos 216 - None None - -
01/20/2017 02:24 Ice Warning 25.7F - 28F 32F 95 1% - - 98% 1 mhos 215 - None None - -
01/20/2017 02:19 Ice Warning 25.7F - 28F 32F 95 1% - - 98% 1 mhos 213 - None None - -
01/20/2017 02:09 Ice Warning 25.5F - 28F 32F 95 1% - - 98% 1 mhos 211 - None None - -
01/20/2017 02:09 Ice Warning 25.5F - 28F 32F 95 1% - - 98% 1 mhos 210 - None None - -
01/20/2017 01:59 Ice Warning 25.3F - 28F 32F 95 1% - - 98% 1 mhos 202 - None None - -
01/20/2017 01:54 Ice Warning 25.2F - 28F 32F 95 1% - - 98% 1 mhos 197 - None None - -
01/20/2017 01:49 Ice Warning 25.2F - 28F 32F 95 1% - - 98% 1 mhos 194 - None None - -
01/20/2017 01:39 Ice Warning 25.5F - 28F 32F 95 1% - - 98% 1 mhos 204 - None None - -
Date/Time
(MST)
Sf
Temp Chem Water Layer Surface Precipitation
Sfc Pvt Sub Frz Factor Pct Dpth DpthThk IcePct Cond Salin FI Type Intens Accum Rate
01/20/2017 01:39 Ice Warning 25.7F - 28F 32F 95 1% - - 98% 1 mhos 203 - None None - -
01/20/2017 01:29 Ice Warning 25.9F - 28F 32F 95 1% - - 98% 1 mhos 203 - None None - -
01/20/2017 01:24 Ice Warning 25.7F - 28F 32F 95 1% - - 98% 1 mhos 199 - None None - -
01/20/2017 01:19 Ice Warning 25.7F - 28F 32F 95 1% - - 98% 1 mhos 196 - None None - -
01/20/2017 01:09 Ice Warning 25.7F - 28F 32F 95 1% - - 98% 1 mhos 191 - None None - -
01/20/2017 01:09 Ice Warning 25.7F - 28F 32F 95 1% - - 98% 1 mhos 193 - None None - -
01/20/2017 00:59 Ice Warning 25.7F - 28F 32F 95 1% - - 98% 1 mhos 188 - None None - -
01/20/2017 00:54 Ice Warning 25.7F - 28F 32F 95 1% - - 98% 1 mhos 190 - None None - -
01/20/2017 00:49 Ice Warning 26.1F - 28F 32F 95 1% - - 98% 1 mhos 194 - None None - -
01/20/2017 00:39 Ice Warning 26.6F - 28F 32F 95 1% - - 98% 1 mhos 199 - None None - -
01/20/2017 00:39 Ice Warning 26.6F - 28F 32F 95 1% - - 98% 1 mhos 199 - None None - -
01/20/2017 00:29 Ice Warning 26.8F - 28F 32F 95 1% - - 98% 1 mhos 200 - None None - -
01/20/2017 00:24 Ice Warning 26.8F - 28F 32F 95 1% - - 98% 1 mhos 200 - None None - -
01/20/2017 00:19 Ice Warning 26.8F - 28F 32F 95 1% - - 98% 1 mhos 202 - None None - -
01/20/2017 00:09 Ice Warning 27.0F - 28F 32F 95 1% - - 98% 1 mhos 206 - None None - -
Date/Time
(MST)
Sf
Temp Chem Water Layer Surface Precipitation
Sfc Pvt Sub Frz Factor Pct Dpth DpthThk IcePct Cond Salin FI Type Intens Accum Rate
01/20/2017 00:09 Ice Warning 27.0F - 28F 32F 95 1% - - 98% 1 mhos 206 - None None - -
01/19/2017 23:59 Ice Warning 27.1F - 28F 32F 95 1% - - 98% 1 mhos 208 - None None - -
01/19/2017 23:54 Ice Warning 27.3F - 28F 32F 95 1% - - 98% 1 mhos 207 - None None - -
01/19/2017 23:49 Ice Warning 27.3F - 28F 32F 95 1% - - 98% 1 mhos 210 - None None - -
01/19/2017 23:39 Ice Warning 27.5F - 28F 32F 95 1% - - 97% 1 mhos 210 - None None - -
01/19/2017 23:39 Ice Warning 27.5F - 28F 32F 95 1% - - 97% 1 mhos 210 - None None - -
01/19/2017 23:29 Ice Warning 27.7F - 28F 32F 95 1% - - 97% 1 mhos 209 - Yes - - -
01/19/2017 23:24 Ice Warning 27.7F - 28F 32F 90 1% - - 97% 1 mhos 209 - Yes - - -
01/19/2017 23:19 Ice Warning 27.7F - 28F 32F 90 1% - - 97% 1 mhos 209 - Yes - - -
01/19/2017 23:09 Ice Warning 27.7F - 28F 32F 90 1% - - 97% 1 mhos 206 - Yes - - -
01/19/2017 23:09 Ice Warning 27.7F - 28F 32F 90 1% - - 97% 1 mhos 206 - Yes - - -
01/19/2017 22:59 Ice Warning 27.5F - 28F 32F 95 1% - - 98% 1 mhos 206 - Yes - - -
01/19/2017 22:54 Ice Warning 27.5F - 28F 32F 95 1% - - 98% 1 mhos 203 - Yes - - -
01/19/2017 22:49 Ice Warning 27.3F - 28F 32F 95 1% - - 98% 1 mhos 205 - None None - -
01/19/2017 22:39 Ice Warning 27.1F - 28F 32F 95 1% - - 98% 1 mhos 200 - None None - -
Date/Time
(MST)
Sf
Temp Chem Water Layer Surface Precipitation
Sfc Pvt Sub Frz Factor Pct Dpth DpthThk IcePct Cond Salin FI Type Intens Accum Rate
01/19/2017 22:39 Ice Warning 27.1F - 28F 32F 95 1% - - 98% 1 mhos 200 - None None - -
01/19/2017 22:29 Ice Warning 27.3F - 28F 32F 95 1% - - 98% 1 mhos 201 - Yes - - -
01/19/2017 22:24 Ice Warning 27.3F - 28F 32F 95 1% - - 98% 1 mhos 207 - Yes - - -
01/19/2017 22:18 Ice Warning 27.5F - 28F 32F 95 1% - - 97% 2 mhos 218 - Yes - - -
01/19/2017 22:09 Ice Warning 28.0F - 28F 32F 95 1% - - 97% 2 mhos 218 - Yes - - -
01/19/2017 22:08 Ice Warning 28.0F - 28F 32F 95 1% - - 97% 2 mhos 218 - Yes - - -
01/19/2017 21:58 Ice Warning 28.2F - 28F 32F 95 1% - - 97% 2 mhos 215 - Yes - - -
01/19/2017 21:54 Ice Warning 28.2F - 28F 32F 95 1% - - 97% 2 mhos 215 - Yes - - -
01/19/2017 21:48 Ice Warning 28.2F - 28F 32F 90 1% - - 97% 2 mhos 215 - Yes - - -
01/19/2017 21:39 Ice Warning 28.4F - 28F 32F 90 1% - - 97% 2 mhos 214 - None None - -
01/19/2017 21:38 Ice Warning 28.4F - 28F 32F 90 1% - - 97% 2 mhos 214 - None None - -
01/19/2017 21:28 Ice Warning 28.4F - 28F 32F 95 1% - - 97% 2 mhos 215 - Yes - - -
01/19/2017 21:24 Ice Warning 28.2F - 28F 32F 95 1% - - 97% 2 mhos 218 - None None - -
01/19/2017 21:18 Ice Warning 28.4F - 28F 32F 95 1% - - 97% 2 mhos 217 - Yes - - -
Change End Date:

Copyright © 1998-2015 Vaisala, Inc.
All Rights Reserved
Send comments about the data to:
SCAN Web ® is a registered trademark of Vaisala, Inc.
SCAN Web Version 6.0